"Time","Value","Approval","myLocation"
"2023-05-07 00:00",1.33552358314691,"Working","OW316"
"2023-05-07 01:00",1.33650167785235,"Working","OW316"
"2023-05-07 02:00",1.33747977255779,"Working","OW316"
"2023-05-07 03:00",1.33845786726324,"Working","OW316"
"2023-05-07 04:00",1.33843596196868,"Working","OW316"
"2023-05-07 05:00",1.33941405667412,"Working","OW316"
"2023-05-07 06:00",1.34039215137957,"Working","OW316"
"2023-05-07 07:00",1.34137024608501,"Working","OW316"
"2023-05-07 08:00",1.34234834079045,"Working","OW316"
"2023-05-07 09:00",1.3423264354959,"Working","OW316"
"2023-05-07 10:00",1.34330453020134,"Working","OW316"
"2023-05-07 11:00",1.34428262490679,"Working","OW316"
"2023-05-07 12:00",1.34426071961223,"Working","OW316"
"2023-05-07 13:00",1.34423881431767,"Working","OW316"
"2023-05-07 14:00",1.35021690902312,"Working","OW316"
"2023-05-07 15:00",1.35919500372856,"Working","OW316"
"2023-05-07 16:00",1.371173098434,"Working","OW316"
"2023-05-07 17:00",1.35915119313945,"Working","OW316"
"2023-05-07 18:00",1.37612928784489,"Working","OW316"
"2023-05-07 19:00",1.39210738255034,"Working","OW316"
"2023-05-07 20:00",1.42308547725578,"Working","OW316"
"2023-05-07 21:00",1.41306357196122,"Working","OW316"
"2023-05-07 22:00",1.38804166666667,"Working","OW316"
"2023-05-07 23:00",1.37701976137211,"Working","OW316"
"2023-05-08 00:00",1.36099785607755,"Working","OW316"
"2023-05-08 01:00",1.362975950783,"Working","OW316"
"2023-05-08 02:00",1.36395404548844,"Working","OW316"
"2023-05-08 03:00",1.36493214019388,"Working","OW316"
"2023-05-08 04:00",1.36791023489933,"Working","OW316"
"2023-05-08 05:00",1.37088832960477,"Working","OW316"
"2023-05-08 06:00",1.37286642431022,"Working","OW316"
"2023-05-08 07:00",1.37484451901566,"Working","OW316"
"2023-05-08 08:00",1.3758226137211,"Working","OW316"
"2023-05-08 09:00",1.37780070842655,"Working","OW316"
"2023-05-08 10:00",1.37877880313199,"Working","OW316"
"2023-05-08 11:00",1.37975689783743,"Working","OW316"
"2023-05-08 12:00",1.38173499254288,"Working","OW316"
"2023-05-08 13:00",1.38271308724832,"Working","OW316"
"2023-05-08 14:00",1.38469118195377,"Working","OW316"
"2023-05-08 15:00",1.38566927665921,"Working","OW316"
"2023-05-08 16:00",1.38664737136465,"Working","OW316"
"2023-05-08 17:00",1.3886254660701,"Working","OW316"
"2023-05-08 18:00",1.39060356077554,"Working","OW316"
"2023-05-08 19:00",1.39258165548098,"Working","OW316"
"2023-05-08 20:00",1.39455975018643,"Working","OW316"
"2023-05-08 21:00",1.39453784489187,"Working","OW316"
"2023-05-08 22:00",1.39651593959732,"Working","OW316"
"2023-05-08 23:00",1.39849403430276,"Working","OW316"
"2023-05-09 00:00",1.3994721290082,"Working","OW316"
"2023-05-09 01:00",1.40145022371365,"Working","OW316"
"2023-05-09 02:00",1.40342831841909,"Working","OW316"
"2023-05-09 03:00",1.40640641312453,"Working","OW316"
"2023-05-09 04:00",1.40838450782998,"Working","OW316"
"2023-05-09 05:00",1.41136260253542,"Working","OW316"
"2023-05-09 06:00",1.41334069724087,"Working","OW316"
"2023-05-09 07:00",1.41531879194631,"Working","OW316"
"2023-05-09 08:00",1.41729688665175,"Working","OW316"
"2023-05-09 09:00",1.4182749813572,"Working","OW316"
"2023-05-09 10:00",1.42025307606264,"Working","OW316"
"2023-05-09 11:00",1.42223117076808,"Working","OW316"
"2023-05-09 12:00",1.42320926547353,"Working","OW316"
"2023-05-09 13:00",1.42518736017897,"Working","OW316"
"2023-05-09 14:00",1.42716545488441,"Working","OW316"
"2023-05-09 15:00",1.42814354958986,"Working","OW316"
"2023-05-09 16:00",1.4301216442953,"Working","OW316"
"2023-05-09 17:00",1.43109973900075,"Working","OW316"
"2023-05-09 18:00",1.43307783370619,"Working","OW316"
"2023-05-09 19:00",1.43405592841163,"Working","OW316"
"2023-05-09 20:00",1.43603402311708,"Working","OW316"
"2023-05-09 21:00",1.43701211782252,"Working","OW316"
"2023-05-09 22:00",1.43799021252796,"Working","OW316"
"2023-05-09 23:00",1.43896830723341,"Working","OW316"
"2023-05-10 00:00",1.43994640193885,"Working","OW316"
"2023-05-10 01:00",1.4409244966443,"Working","OW316"
"2023-05-10 02:00",1.44290259134974,"Working","OW316"
"2023-05-10 03:00",1.44388068605518,"Working","OW316"
"2023-05-10 04:00",1.44685878076063,"Working","OW316"
"2023-05-10 05:00",1.44783687546607,"Working","OW316"
"2023-05-10 06:00",1.44981497017151,"Working","OW316"
"2023-05-10 07:00",1.45179306487696,"Working","OW316"
"2023-05-10 08:00",1.4527711595824,"Working","OW316"
"2023-05-10 09:00",1.45374925428784,"Working","OW316"
"2023-05-10 10:00",1.45672734899329,"Working","OW316"
"2023-05-10 11:00",1.45970544369873,"Working","OW316"
"2023-05-10 12:00",1.46068353840418,"Working","OW316"
"2023-05-10 13:00",1.46166163310962,"Working","OW316"
"2023-05-10 14:00",1.46363972781506,"Working","OW316"
"2023-05-10 15:00",1.46361782252051,"Working","OW316"
"2023-05-10 16:00",1.46459591722595,"Working","OW316"
"2023-05-10 17:00",1.46557401193139,"Working","OW316"
"2023-05-10 18:00",1.46755210663684,"Working","OW316"
"2023-05-10 19:00",1.46953020134228,"Working","OW316"
"2023-05-10 20:00",1.47050829604773,"Working","OW316"
"2023-05-10 21:00",1.47148639075317,"Working","OW316"
"2023-05-10 22:00",1.47246448545861,"Working","OW316"
"2023-05-10 23:00",1.47344258016406,"Working","OW316"
"2023-05-11 00:00",1.4744206748695,"Working","OW316"
"2023-05-11 01:00",1.47639876957494,"Working","OW316"
"2023-05-11 02:00",1.47837686428039,"Working","OW316"
"2023-05-11 03:00",1.48035495898583,"Working","OW316"
"2023-05-11 04:00",1.48233305369128,"Working","OW316"
"2023-05-11 05:00",1.48431114839672,"Working","OW316"
"2023-05-11 06:00",1.48528924310216,"Working","OW316"
"2023-05-11 07:00",1.48926733780761,"Working","OW316"
"2023-05-11 08:00",1.49124543251305,"Working","OW316"
"2023-05-11 09:00",1.49322352721849,"Working","OW316"
"2023-05-11 10:00",1.49420162192394,"Working","OW316"
"2023-05-11 11:00",1.49617971662938,"Working","OW316"
"2023-05-11 12:00",1.49715781133482,"Working","OW316"
"2023-05-11 13:00",1.49813590604027,"Working","OW316"
"2023-05-11 14:00",1.50011400074571,"Working","OW316"
"2023-05-11 15:00",1.50209209545116,"Working","OW316"
"2023-05-11 16:00",1.5030701901566,"Working","OW316"
"2023-05-11 17:00",1.50504828486204,"Working","OW316"
"2023-05-11 18:00",1.50602637956749,"Working","OW316"
"2023-05-11 19:00",1.50700447427293,"Working","OW316"
"2023-05-11 20:00",1.50898256897837,"Working","OW316"
"2023-05-11 21:00",1.50896066368382,"Working","OW316"
"2023-05-11 22:00",1.50993875838926,"Working","OW316"
"2023-05-11 23:00",1.51191685309471,"Working","OW316"
"2023-05-12 00:00",1.51289494780015,"Working","OW316"
"2023-05-12 01:00",1.51487304250559,"Working","OW316"
"2023-05-12 02:00",1.51585113721104,"Working","OW316"
"2023-05-12 03:00",1.51782923191648,"Working","OW316"
"2023-05-12 04:00",1.51980732662192,"Working","OW316"
"2023-05-12 05:00",1.52178542132737,"Working","OW316"
"2023-05-12 06:00",1.52376351603281,"Working","OW316"
"2023-05-12 07:00",1.52574161073826,"Working","OW316"
"2023-05-12 08:00",1.5277197054437,"Working","OW316"
"2023-05-12 09:00",1.52969780014914,"Working","OW316"
"2023-05-12 10:00",1.53067589485459,"Working","OW316"
"2023-05-12 11:00",1.53165398956003,"Working","OW316"
"2023-05-12 12:00",1.53363208426547,"Working","OW316"
"2023-05-12 13:00",1.53461017897092,"Working","OW316"
"2023-05-12 14:00",1.53558827367636,"Working","OW316"
"2023-05-12 15:00",1.5365663683818,"Working","OW316"
"2023-05-12 16:00",1.54054446308725,"Working","OW316"
"2023-05-12 17:00",1.54152255779269,"Working","OW316"
"2023-05-12 18:00",1.54350065249814,"Working","OW316"
"2023-05-12 19:00",1.54447874720358,"Working","OW316"
"2023-05-12 20:00",1.54545684190902,"Working","OW316"
"2023-05-12 21:00",1.54643493661447,"Working","OW316"
"2023-05-12 22:00",1.54741303131991,"Working","OW316"
"2023-05-12 23:00",1.54739112602535,"Working","OW316"
"2023-05-13 00:00",1.5483692207308,"Working","OW316"
"2023-05-13 01:00",1.55034731543624,"Working","OW316"
"2023-05-13 02:00",1.55232541014169,"Working","OW316"
"2023-05-13 03:00",1.55330350484713,"Working","OW316"
"2023-05-13 04:00",1.55528159955257,"Working","OW316"
"2023-05-13 05:00",1.55825969425802,"Working","OW316"
"2023-05-13 06:00",1.55923778896346,"Working","OW316"
"2023-05-13 07:00",1.5612158836689,"Working","OW316"
"2023-05-13 08:00",1.56319397837435,"Working","OW316"
"2023-05-13 09:00",1.56517207307979,"Working","OW316"
"2023-05-13 10:00",1.56615016778523,"Working","OW316"
"2023-05-13 11:00",1.56712826249068,"Working","OW316"
"2023-05-13 12:00",1.56810635719612,"Working","OW316"
"2023-05-13 13:00",1.56908445190157,"Working","OW316"
"2023-05-13 14:00",1.57006254660701,"Working","OW316"
"2023-05-13 15:00",1.57204064131245,"Working","OW316"
"2023-05-13 16:00",1.5730187360179,"Working","OW316"
"2023-05-13 17:00",1.57399683072334,"Working","OW316"
"2023-05-13 18:00",1.57497492542878,"Working","OW316"
"2023-05-13 19:00",1.57695302013423,"Working","OW316"
"2023-05-13 20:00",1.57793111483967,"Working","OW316"
"2023-05-13 21:00",1.57790920954512,"Working","OW316"
"2023-05-13 22:00",1.57888730425056,"Working","OW316"
"2023-05-13 23:00",1.580865398956,"Working","OW316"
"2023-05-14 00:00",1.58284349366145,"Working","OW316"
"2023-05-14 01:00",1.58582158836689,"Working","OW316"
"2023-05-14 02:00",1.58679968307233,"Working","OW316"
"2023-05-14 03:00",1.58777777777778,"Working","OW316"
"2023-05-14 04:00",1.58875587248322,"Working","OW316"
"2023-05-14 05:00",1.59073396718867,"Working","OW316"
"2023-05-14 06:00",1.59171206189411,"Working","OW316"
"2023-05-14 07:00",1.59369015659955,"Working","OW316"
"2023-05-14 08:00",1.595668251305,"Working","OW316"
"2023-05-14 09:00",1.59664634601044,"Working","OW316"
"2023-05-14 10:00",1.59762444071588,"Working","OW316"
"2023-05-14 11:00",1.59860253542133,"Working","OW316"
"2023-05-14 12:00",1.59858063012677,"Working","OW316"
"2023-05-14 13:00",1.59955872483221,"Working","OW316"
"2023-05-14 14:00",1.60053681953766,"Working","OW316"
"2023-05-14 15:00",1.6015149142431,"Working","OW316"
"2023-05-14 16:00",1.60349300894855,"Working","OW316"
"2023-05-14 17:00",1.60347110365399,"Working","OW316"
"2023-05-14 18:00",1.60544919835943,"Working","OW316"
"2023-05-14 19:00",1.60642729306488,"Working","OW316"
"2023-05-14 20:00",1.60840538777032,"Working","OW316"
"2023-05-14 21:00",1.60938348247576,"Working","OW316"
"2023-05-14 22:00",1.61036157718121,"Working","OW316"
"2023-05-14 23:00",1.61133967188665,"Working","OW316"
"2023-05-15 00:00",1.6123177665921,"Working","OW316"
"2023-05-15 01:00",1.61429586129754,"Working","OW316"
"2023-05-15 02:00",1.61527395600298,"Working","OW316"
"2023-05-15 03:00",1.61725205070843,"Working","OW316"
"2023-05-15 04:00",1.61923014541387,"Working","OW316"
"2023-05-15 05:00",1.62120824011931,"Working","OW316"
"2023-05-15 06:00",1.62318633482476,"Working","OW316"
"2023-05-15 07:00",1.6251644295302,"Working","OW316"
"2023-05-15 08:00",1.62714252423564,"Working","OW316"
"2023-05-15 09:00",1.62812061894109,"Working","OW316"
"2023-05-15 10:00",1.62909871364653,"Working","OW316"
"2023-05-15 11:00",1.63007680835198,"Working","OW316"
"2023-05-15 12:00",1.63105490305742,"Working","OW316"
"2023-05-15 13:00",1.63203299776286,"Working","OW316"
"2023-05-15 14:00",1.63301109246831,"Working","OW316"
"2023-05-15 15:00",1.63498918717375,"Working","OW316"
"2023-05-15 16:00",1.63596728187919,"Working","OW316"
"2023-05-15 17:00",1.63694537658464,"Working","OW316"
"2023-05-15 18:00",1.63892347129008,"Working","OW316"
"2023-05-15 19:00",1.63990156599553,"Working","OW316"
"2023-05-15 20:00",1.64087966070097,"Working","OW316"
"2023-05-15 21:00",1.64285775540641,"Working","OW316"
"2023-05-15 22:00",1.64383585011186,"Working","OW316"
"2023-05-15 23:00",1.6448139448173,"Working","OW316"
"2023-05-16 00:00",1.64579203952274,"Working","OW316"
"2023-05-16 01:00",1.64677013422819,"Working","OW316"
"2023-05-16 02:00",1.64774822893363,"Working","OW316"
"2023-05-16 03:00",1.65072632363908,"Working","OW316"
"2023-05-16 04:00",1.65270441834452,"Working","OW316"
"2023-05-16 05:00",1.65468251304996,"Working","OW316"
"2023-05-16 06:00",1.65766060775541,"Working","OW316"
"2023-05-16 07:00",1.66063870246085,"Working","OW316"
"2023-05-16 08:00",1.66261679716629,"Working","OW316"
"2023-05-16 09:00",1.66459489187174,"Working","OW316"
"2023-05-16 10:00",1.66657298657718,"Working","OW316"
"2023-05-16 11:00",1.66855108128262,"Working","OW316"
"2023-05-16 12:00",1.66952917598807,"Working","OW316"
"2023-05-16 13:00",1.67050727069351,"Working","OW316"
"2023-05-16 14:00",1.67148536539896,"Working","OW316"
"2023-05-16 15:00",1.6724634601044,"Working","OW316"
"2023-05-16 16:00",1.67444155480984,"Working","OW316"
"2023-05-16 17:00",1.67641964951529,"Working","OW316"
"2023-05-16 18:00",1.67839774422073,"Working","OW316"
"2023-05-16 19:00",1.67937583892617,"Working","OW316"
"2023-05-16 20:00",1.68035393363162,"Working","OW316"
"2023-05-16 21:00",1.68033202833706,"Working","OW316"
"2023-05-16 22:00",1.68031012304251,"Working","OW316"
"2023-05-16 23:00",1.68128821774795,"Working","OW316"
"2023-05-17 00:00",1.68126631245339,"Working","OW316"
"2023-05-17 01:00",1.68224440715884,"Working","OW316"
"2023-05-17 02:00",1.68322250186428,"Working","OW316"
"2023-05-17 03:00",1.68620059656972,"Working","OW316"
"2023-05-17 04:00",1.68817869127517,"Working","OW316"
"2023-05-17 05:00",1.68915678598061,"Working","OW316"
"2023-05-17 06:00",1.69113488068606,"Working","OW316"
"2023-05-17 07:00",1.6921129753915,"Working","OW316"
"2023-05-17 08:00",1.69209107009694,"Working","OW316"
"2023-05-17 09:00",1.69306916480239,"Working","OW316"
"2023-05-17 10:00",1.69504725950783,"Working","OW316"
"2023-05-17 11:00",1.69502535421327,"Working","OW316"
"2023-05-17 12:00",1.69600344891872,"Working","OW316"
"2023-05-17 13:00",1.69598154362416,"Working","OW316"
"2023-05-17 14:00",1.6969596383296,"Working","OW316"
"2023-05-17 15:00",1.69793773303505,"Working","OW316"
"2023-05-17 16:00",1.69891582774049,"Working","OW316"
"2023-05-17 17:00",1.69989392244594,"Working","OW316"
"2023-05-17 18:00",1.70187201715138,"Working","OW316"
"2023-05-17 19:00",1.70285011185682,"Working","OW316"
"2023-05-17 20:00",1.70382820656227,"Working","OW316"
"2023-05-17 21:00",1.70480630126771,"Working","OW316"
"2023-05-17 22:00",1.70378439597315,"Working","OW316"
"2023-05-17 23:00",1.7057624906786,"Working","OW316"
"2023-05-18 00:00",1.70674058538404,"Working","OW316"
"2023-05-18 01:00",1.70771868008949,"Working","OW316"
"2023-05-18 02:00",1.70969677479493,"Working","OW316"
"2023-05-18 03:00",1.71167486950037,"Working","OW316"
"2023-05-18 04:00",1.71265296420582,"Working","OW316"
"2023-05-18 05:00",1.71463105891126,"Working","OW316"
"2023-05-18 06:00",1.7156091536167,"Working","OW316"
"2023-05-18 07:00",1.71658724832215,"Working","OW316"
"2023-05-18 08:00",1.71856534302759,"Working","OW316"
"2023-05-18 09:00",1.71854343773303,"Working","OW316"
"2023-05-18 10:00",1.72052153243848,"Working","OW316"
"2023-05-18 11:00",1.72049962714392,"Working","OW316"
"2023-05-18 12:00",1.72147772184937,"Working","OW316"
"2023-05-18 13:00",1.72145581655481,"Working","OW316"
"2023-05-18 14:00",1.72343391126025,"Working","OW316"
"2023-05-18 15:00",1.7244120059657,"Working","OW316"
"2023-05-18 16:00",1.72639010067114,"Working","OW316"
"2023-05-18 17:00",1.72736819537658,"Working","OW316"
"2023-05-18 18:00",1.72834629008203,"Working","OW316"
"2023-05-18 19:00",1.73032438478747,"Working","OW316"
"2023-05-18 20:00",1.73230247949292,"Working","OW316"
"2023-05-18 21:00",1.73328057419836,"Working","OW316"
"2023-05-18 22:00",1.7342586689038,"Working","OW316"
"2023-05-18 23:00",1.73523676360925,"Working","OW316"
"2023-05-19 00:00",1.73521485831469,"Working","OW316"
"2023-05-19 01:00",1.73719295302013,"Working","OW316"
"2023-05-19 02:00",1.73817104772558,"Working","OW316"
"2023-05-19 03:00",1.73914914243102,"Working","OW316"
"2023-05-19 04:00",1.74012723713647,"Working","OW316"
"2023-05-19 05:00",1.74210533184191,"Working","OW316"
"2023-05-19 06:00",1.74608342654735,"Working","OW316"
"2023-05-19 07:00",1.7480615212528,"Working","OW316"
"2023-05-19 08:00",1.74903961595824,"Working","OW316"
"2023-05-19 09:00",1.75001771066368,"Working","OW316"
"2023-05-19 10:00",1.75099580536913,"Working","OW316"
"2023-05-19 11:00",1.75197390007457,"Working","OW316"
"2023-05-19 12:00",1.75295199478001,"Working","OW316"
"2023-05-19 13:00",1.75393008948546,"Working","OW316"
"2023-05-19 14:00",1.7549081841909,"Working","OW316"
"2023-05-19 15:00",1.75588627889635,"Working","OW316"
"2023-05-19 16:00",1.75786437360179,"Working","OW316"
"2023-05-19 17:00",1.75984246830723,"Working","OW316"
"2023-05-19 18:00",1.75982056301268,"Working","OW316"
"2023-05-19 19:00",1.76079865771812,"Working","OW316"
"2023-05-19 20:00",1.76177675242356,"Working","OW316"
"2023-05-19 21:00",1.76175484712901,"Working","OW316"
"2023-05-19 22:00",1.76273294183445,"Working","OW316"
"2023-05-19 23:00",1.7657110365399,"Working","OW316"
"2023-05-20 00:00",1.76668913124534,"Working","OW316"
"2023-05-20 01:00",1.76866722595078,"Working","OW316"
"2023-05-20 02:00",1.77064532065623,"Working","OW316"
"2023-05-20 03:00",1.77062341536167,"Working","OW316"
"2023-05-20 04:00",1.77260151006711,"Working","OW316"
"2023-05-20 05:00",1.77357960477256,"Working","OW316"
"2023-05-20 06:00",1.774557699478,"Working","OW316"
"2023-05-20 07:00",1.77553579418345,"Working","OW316"
"2023-05-20 08:00",1.77651388888889,"Working","OW316"
"2023-05-20 09:00",1.77749198359433,"Working","OW316"
"2023-05-20 10:00",1.77847007829978,"Working","OW316"
"2023-05-20 11:00",1.77944817300522,"Working","OW316"
"2023-05-20 12:00",1.77942626771066,"Working","OW316"
"2023-05-20 13:00",1.78040436241611,"Working","OW316"
"2023-05-20 14:00",1.78138245712155,"Working","OW316"
"2023-05-20 15:00",1.78336055182699,"Working","OW316"
"2023-05-20 16:00",1.78433864653244,"Working","OW316"
"2023-05-20 17:00",1.78431674123788,"Working","OW316"
"2023-05-20 18:00",1.78529483594333,"Working","OW316"
"2023-05-20 19:00",1.78627293064877,"Working","OW316"
"2023-05-20 20:00",1.78725102535421,"Working","OW316"
"2023-05-20 21:00",1.78722912005966,"Working","OW316"
"2023-05-20 22:00",1.7882072147651,"Working","OW316"
"2023-05-20 23:00",1.78918530947054,"Working","OW316"
"2023-05-21 00:00",1.79016340417599,"Working","OW316"
"2023-05-21 01:00",1.79014149888143,"Working","OW316"
"2023-05-21 02:00",1.79211959358688,"Working","OW316"
"2023-05-21 03:00",1.79409768829232,"Working","OW316"
"2023-05-21 04:00",1.79407578299776,"Working","OW316"
"2023-05-21 05:00",1.79605387770321,"Working","OW316"
"2023-05-21 06:00",1.79803197240865,"Working","OW316"
"2023-05-21 07:00",1.79901006711409,"Working","OW316"
"2023-05-21 08:00",1.80098816181954,"Working","OW316"
"2023-05-21 09:00",1.80196625652498,"Working","OW316"
"2023-05-21 10:00",1.80194435123043,"Working","OW316"
"2023-05-21 11:00",1.80292244593587,"Working","OW316"
"2023-05-21 12:00",1.80390054064131,"Working","OW316"
"2023-05-21 13:00",1.80487863534676,"Working","OW316"
"2023-05-21 14:00",1.8058567300522,"Working","OW316"
"2023-05-21 15:00",1.80783482475764,"Working","OW316"
"2023-05-21 16:00",1.80781291946309,"Working","OW316"
"2023-05-21 17:00",1.80979101416853,"Working","OW316"
"2023-05-21 18:00",1.81176910887397,"Working","OW316"
"2023-05-21 19:00",1.81474720357942,"Working","OW316"
"2023-05-21 20:00",1.81572529828486,"Working","OW316"
"2023-05-21 21:00",1.81670339299031,"Working","OW316"
"2023-05-21 22:00",1.81768148769575,"Working","OW316"
"2023-05-21 23:00",1.81865958240119,"Working","OW316"
"2023-05-22 00:00",1.81863767710664,"Working","OW316"
"2023-05-22 01:00",1.81961577181208,"Working","OW316"
"2023-05-22 02:00",1.81959386651752,"Working","OW316"
"2023-05-22 03:00",1.82157196122297,"Working","OW316"
"2023-05-22 04:00",1.82255005592841,"Working","OW316"
"2023-05-22 05:00",1.82352815063386,"Working","OW316"
"2023-05-22 06:00",1.8245062453393,"Working","OW316"
"2023-05-22 07:00",1.82548434004474,"Working","OW316"
"2023-05-22 08:00",1.82646243475019,"Working","OW316"
"2023-05-22 09:00",1.82744052945563,"Working","OW316"
"2023-05-22 10:00",1.82741862416107,"Working","OW316"
"2023-05-22 11:00",1.82839671886652,"Working","OW316"
"2023-05-22 12:00",1.82837481357196,"Working","OW316"
"2023-05-22 13:00",1.8293529082774,"Working","OW316"
"2023-05-22 14:00",1.83033100298285,"Working","OW316"
"2023-05-22 15:00",1.83030909768829,"Working","OW316"
"2023-05-22 16:00",1.83228719239374,"Working","OW316"
"2023-05-22 17:00",1.83226528709918,"Working","OW316"
"2023-05-22 18:00",1.83324338180462,"Working","OW316"
"2023-05-22 19:00",1.83422147651007,"Working","OW316"
"2023-05-22 20:00",1.83619957121551,"Working","OW316"
"2023-05-22 21:00",1.83717766592095,"Working","OW316"
"2023-05-22 22:00",1.8391557606264,"Working","OW316"
"2023-05-22 23:00",1.83913385533184,"Working","OW316"
"2023-05-23 00:00",1.84111195003729,"Working","OW316"
"2023-05-23 01:00",1.84209004474273,"Working","OW316"
"2023-05-23 02:00",1.84306813944817,"Working","OW316"
"2023-05-23 03:00",1.84304623415362,"Working","OW316"
"2023-05-23 04:00",1.84502432885906,"Working","OW316"
"2023-05-23 05:00",1.8460024235645,"Working","OW316"
"2023-05-23 06:00",1.84798051826995,"Working","OW316"
"2023-05-23 07:00",1.84895861297539,"Working","OW316"
"2023-05-23 08:00",1.84893670768084,"Working","OW316"
"2023-05-23 09:00",1.84991480238628,"Working","OW316"
"2023-05-23 10:00",1.85089289709172,"Working","OW316"
"2023-05-23 11:00",1.85087099179717,"Working","OW316"
"2023-05-23 12:00",1.85184908650261,"Working","OW316"
"2023-05-23 13:00",1.85282718120805,"Working","OW316"
"2023-05-23 14:00",1.8538052759135,"Working","OW316"
"2023-05-23 15:00",1.85378337061894,"Working","OW316"
"2023-05-23 16:00",1.85476146532438,"Working","OW316"
"2023-05-23 17:00",1.85673956002983,"Working","OW316"
"2023-05-23 18:00",1.85671765473527,"Working","OW316"
"2023-05-23 19:00",1.85769574944072,"Working","OW316"
"2023-05-23 20:00",1.85867384414616,"Working","OW316"
"2023-05-23 21:00",1.8606519388516,"Working","OW316"
"2023-05-23 22:00",1.86163003355705,"Working","OW316"
"2023-05-23 23:00",1.86260812826249,"Working","OW316"
"2023-05-24 00:00",1.86258622296793,"Working","OW316"
"2023-05-24 01:00",1.86356431767338,"Working","OW316"
"2023-05-24 02:00",1.86454241237882,"Working","OW316"
"2023-05-24 03:00",1.86552050708427,"Working","OW316"
"2023-05-24 04:00",1.86749860178971,"Working","OW316"
"2023-05-24 05:00",1.86847669649515,"Working","OW316"
"2023-05-24 06:00",1.8694547912006,"Working","OW316"
"2023-05-24 07:00",1.87043288590604,"Working","OW316"
"2023-05-24 08:00",1.87141098061148,"Working","OW316"
"2023-05-24 09:00",1.87238907531693,"Working","OW316"
"2023-05-24 10:00",1.87236717002237,"Working","OW316"
"2023-05-24 11:00",1.87334526472782,"Working","OW316"
"2023-05-24 12:00",1.87432335943326,"Working","OW316"
"2023-05-24 13:00",1.8743014541387,"Working","OW316"
"2023-05-24 14:00",1.87527954884415,"Working","OW316"
"2023-05-24 15:00",1.87625764354959,"Working","OW316"
"2023-05-24 16:00",1.87823573825503,"Working","OW316"
"2023-05-24 17:00",1.88021383296048,"Working","OW316"
"2023-05-24 18:00",1.88219192766592,"Working","OW316"
"2023-05-24 19:00",1.88317002237136,"Working","OW316"
"2023-05-24 20:00",1.88514811707681,"Working","OW316"
"2023-05-24 21:00",1.88512621178225,"Working","OW316"
"2023-05-24 22:00",1.8861043064877,"Working","OW316"
"2023-05-24 23:00",1.88608240119314,"Working","OW316"
"2023-05-25 00:00",1.88606049589858,"Working","OW316"
"2023-05-25 01:00",1.88603859060403,"Working","OW316"
"2023-05-25 02:00",1.88801668530947,"Working","OW316"
"2023-05-25 03:00",1.88799478001491,"Working","OW316"